When you browse on this site, cookies collect data to enhance your experience and personalize the content and advertising you see.
Visit our Privacy Policy to learn more. By continuing to use the site, you agree to this use of cookies and data.
  • In Lithuania
  • List of Countries
  • For 7 days
  • Water Temperature
  • Satellite Maps
  • Weather Map
  • Weather Widgets
  • user-avatar
    Login

    Hourly Weather San Miguel de Tucumán

    Today, 19 February, Tuesday

    Time Temperature Precipitation Wind Pressure Humidity
    00:00 +26°C° 0.1 mm 1 mps 718 mmHg 70%
    01:00 +25°C° 0.1 mm 1 mps 718 mmHg 70%
    02:00 +25°C° 0.1 mm 1 mps 718 mmHg 70%
    03:00 +25°C° 0 mm 1 mps 718 mmHg 69%
    04:00 +24°C° 0 mm 1 mps 718 mmHg 68%
    05:00 +24°C° 0 mm 1 mps 718 mmHg 67%
    06:00 +26°C° 0 mm 1 mps 718 mmHg 63%
    07:00 +27°C° 0 mm 1 mps 719 mmHg 60%
    08:00 +27°C° 0 mm 0 mps 719 mmHg 56%
    09:00 +31°C° 0 mm 1 mps 719 mmHg 50%
    10:00 +33°C° 0 mm 1 mps 719 mmHg 44%
    11:00 +35°C° 0 mm 1 mps 719 mmHg 38%
    12:00 +37°C° 0 mm 2 mps 719 mmHg 37%
    13:00 +37°C° 0 mm 2 mps 718 mmHg 35%
    14:00 +38°C° 0 mm 2 mps 718 mmHg 34%
    15:00 +37°C° 0 mm 2 mps 717 mmHg 36%
    16:00 +37°C° 0 mm 2 mps 716 mmHg 39%
    17:00 +35°C° 0 mm 1 mps 716 mmHg 41%
    18:00 +33°C° 0.1 mm 1 mps 716 mmHg 47%
    19:00 +31°C° 0.1 mm 1 mps 716 mmHg 53%
    20:00 +29°C° 0.1 mm 1 mps 717 mmHg 58%
    21:00 +29°C° 0.1 mm 1 mps 717 mmHg 60%
    22:00 +28°C° 0.1 mm 2 mps 718 mmHg 62%
    23:00 +28°C° 0.1 mm 2 mps 718 mmHg 63%

    Tomorrow, 20 February, Wednesday

    Time Temperature Precipitation Wind Pressure Humidity
    00:00 +27°C° 0 mm 2 mps 718 mmHg 64%
    01:00 +27°C° 0 mm 1 mps 718 mmHg 65%
    02:00 +26°C° 0 mm 1 mps 718 mmHg 66%
    03:00 +26°C° 0 mm 1 mps 718 mmHg 67%
    04:00 +26°C° 0 mm 1 mps 717 mmHg 67%
    05:00 +26°C° 0 mm 1 mps 717 mmHg 67%
    06:00 +25°C° 0 mm 0 mps 717 mmHg 63%
    07:00 +26°C° 0 mm 0 mps 718 mmHg 60%
    08:00 +27°C° 0 mm 0 mps 718 mmHg 57%
    09:00 +32°C° 0 mm 1 mps 718 mmHg 51%
    10:00 +35°C° 0 mm 2 mps 718 mmHg 45%
    11:00 +37°C° 0 mm 2 mps 718 mmHg 39%
    12:00 +38°C° 0 mm 3 mps 717 mmHg 36%
    13:00 +39°C° 0 mm 3 mps 717 mmHg 34%
    14:00 +40°C° 0 mm 3 mps 716 mmHg 32%
    15:00 +39°C° 0 mm 3 mps 715 mmHg 34%
    16:00 +39°C° 0 mm 3 mps 715 mmHg 36%
    17:00 +38°C° 0 mm 3 mps 714 mmHg 37%
    18:00 +36°C° 0 mm 3 mps 714 mmHg 43%
    19:00 +34°C° 0 mm 2 mps 715 mmHg 49%
    20:00 +30°C° 0 mm 2 mps 715 mmHg 55%
    21:00 +30°C° 0 mm 2 mps 715 mmHg 56%
    22:00 +30°C° 0 mm 2 mps 716 mmHg 56%
    23:00 +29°C° 0 mm 2 mps 716 mmHg 57%

    Day after tomorrow, 21 February, Thursday

    Time Temperature Precipitation Wind Pressure Humidity
    00:00 +29°C° 0 mm 2 mps 716 mmHg 58%
    01:00 +28°C° 0 mm 1 mps 716 mmHg 59%
    02:00 +28°C° 0 mm 1 mps 716 mmHg 61%
    03:00 +27°C° 0 mm 1 mps 715 mmHg 62%
    04:00 +27°C° 0 mm 1 mps 715 mmHg 63%
    05:00 +26°C° 0 mm 1 mps 715 mmHg 64%
    06:00 +28°C° 0 mm 1 mps 716 mmHg 61%
    07:00 +29°C° 0 mm 1 mps 716 mmHg 58%
    08:00 +28°C° 0 mm 0 mps 717 mmHg 54%
    09:00 +33°C° 0 mm 1 mps 717 mmHg 48%
    10:00 +36°C° 0 mm 2 mps 718 mmHg 42%
    11:00 +38°C° 0 mm 2 mps 718 mmHg 36%
    12:00 +39°C° 0 mm 2 mps 717 mmHg 34%
    13:00 +40°C° 0 mm 3 mps 717 mmHg 32%
    14:00 +43°C° 0 mm 3 mps 717 mmHg 30%
    15:00 +42°C° 0 mm 3 mps 716 mmHg 32%
    16:00 +40°C° 0 mm 3 mps 716 mmHg 34%
    17:00 +40°C° 0 mm 3 mps 715 mmHg 36%
    18:00 +38°C° 0 mm 2 mps 716 mmHg 43%
    19:00 +35°C° 0 mm 2 mps 716 mmHg 49%
    20:00 +32°C° 0 mm 2 mps 717 mmHg 55%
    21:00 +31°C° 0 mm 2 mps 717 mmHg 57%
    22:00 +31°C° 0 mm 2 mps 718 mmHg 60%
    23:00 +30°C° 0 mm 2 mps 718 mmHg 62%

    22 February, Friday

    Time Temperature Precipitation Wind Pressure Humidity
    00:00 +30°C° 0 mm 2 mps 718 mmHg 62%
    01:00 +30°C° 0 mm 2 mps 717 mmHg 62%
    02:00 +29°C° 0 mm 1 mps 717 mmHg 62%
    03:00 +29°C° 0 mm 1 mps 717 mmHg 63%
    04:00 +28°C° 0 mm 1 mps 717 mmHg 63%
    05:00 +28°C° 0 mm 1 mps 716 mmHg 64%
    06:00 +29°C° 0 mm 1 mps 717 mmHg 60%
    07:00 +30°C° 0 mm 1 mps 718 mmHg 56%
    08:00 +32°C° 0 mm 1 mps 718 mmHg 53%
    09:00 +34°C° 0 mm 1 mps 718 mmHg 47%
    10:00 +36°C° 0 mm 1 mps 718 mmHg 41%
    11:00 +40°C° 0 mm 1 mps 719 mmHg 35%
    12:00 +41°C° 0 mm 2 mps 718 mmHg 33%
    13:00 +42°C° 0 mm 2 mps 717 mmHg 31%
    14:00 +43°C° 0 mm 2 mps 717 mmHg 29%
    15:00 +42°C° 0 mm 2 mps 716 mmHg 30%
    16:00 +42°C° 0 mm 2 mps 716 mmHg 31%
    17:00 +41°C° 0 mm 2 mps 715 mmHg 32%
    18:00 +39°C° 0 mm 2 mps 716 mmHg 38%
    19:00 +36°C° 0 mm 2 mps 716 mmHg 44%
    20:00 +34°C° 0 mm 2 mps 716 mmHg 50%
    21:00 +32°C° 0.2 mm 2 mps 717 mmHg 52%
    22:00 +32°C° 0.2 mm 2 mps 717 mmHg 54%
    23:00 +31°C° 0.2 mm 2 mps 717 mmHg 56%

    23 February, Saturday

    Time Temperature Precipitation Wind Pressure Humidity
    00:00 +31°C° 0 mm 2 mps 717 mmHg 57%
    01:00 +30°C° 0 mm 2 mps 716 mmHg 58%
    02:00 +30°C° 0 mm 1 mps 716 mmHg 58%
    03:00 +29°C° 0 mm 1 mps 715 mmHg 59%
    04:00 +29°C° 0 mm 1 mps 715 mmHg 60%
    05:00 +28°C° 0 mm 1 mps 715 mmHg 61%
    06:00 +30°C° 0 mm 1 mps 715 mmHg 58%
    07:00 +31°C° 0 mm 1 mps 715 mmHg 55%
    08:00 +32°C° 0 mm 1 mps 715 mmHg 52%
    09:00 +34°C° 0 mm 1 mps 715 mmHg 46%
    10:00 +38°C° 0 mm 2 mps 715 mmHg 40%
    11:00 +40°C° 0 mm 2 mps 715 mmHg 34%
    12:00 +42°C° 0 mm 3 mps 714 mmHg 32%
    13:00 +43°C° 0 mm 3 mps 713 mmHg 29%
    14:00 +45°C° 0 mm 3 mps 712 mmHg 27%
    15:00 +44°C° 0 mm 3 mps 712 mmHg 29%
    16:00 +43°C° 0 mm 3 mps 711 mmHg 31%
    17:00 +42°C° 0 mm 2 mps 711 mmHg 32%
    18:00 +39°C° 0 mm 2 mps 711 mmHg 38%
    19:00 +37°C° 0 mm 2 mps 711 mmHg 43%
    20:00 +34°C° 0 mm 1 mps 712 mmHg 48%
    21:00 +34°C° 0 mm 2 mps 712 mmHg 50%
    22:00 +32°C° 0 mm 2 mps 712 mmHg 52%
    23:00 +32°C° 0 mm 2 mps 713 mmHg 53%

    24 February, Sunday

    Time Temperature Precipitation Wind Pressure Humidity
    00:00 +31°C° 0 mm 2 mps 712 mmHg 54%
    01:00 +31°C° 0 mm 1 mps 712 mmHg 55%
    02:00 +30°C° 0 mm 1 mps 711 mmHg 56%
    03:00 +30°C° 0 mm 1 mps 711 mmHg 55%
    04:00 +29°C° 0 mm 1 mps 711 mmHg 55%
    05:00 +29°C° 0 mm 1 mps 711 mmHg 54%
    06:00 +30°C° 0 mm 2 mps 711 mmHg 55%
    07:00 +30°C° 0 mm 2 mps 712 mmHg 56%
    08:00 +31°C° 0 mm 3 mps 712 mmHg 56%
    09:00 +33°C° 0 mm 3 mps 712 mmHg 54%
    10:00 +35°C° 0 mm 3 mps 713 mmHg 51%
    11:00 +36°C° 0 mm 3 mps 713 mmHg 48%
    12:00 +37°C° 0 mm 3 mps 712 mmHg 47%
    13:00 +38°C° 0 mm 3 mps 712 mmHg 45%
    14:00 +39°C° 0 mm 3 mps 712 mmHg 43%
    15:00 +39°C° 0.1 mm 3 mps 711 mmHg 45%
    16:00 +38°C° 0.1 mm 2 mps 711 mmHg 46%
    17:00 +38°C° 0.1 mm 2 mps 711 mmHg 48%
    18:00 +36°C° 0.4 mm 2 mps 712 mmHg 53%
    19:00 +34°C° 0.4 mm 2 mps 713 mmHg 58%
    20:00 +32°C° 0.4 mm 2 mps 714 mmHg 63%
    21:00 +30°C° 3.8 mm 2 mps 714 mmHg 72%
    22:00 +29°C° 3.8 mm 2 mps 715 mmHg 80%
    23:00 +27°C° 3.8 mm 2 mps 716 mmHg 89%
    Show more